Location: ???????
(55.4362°N, 38.1183°E)
Time: 01:21:47
(UTC+00:00)

USA 32 - Pass Details

Date: 17 June 2021
Orbit: 777 x 783 km, 85.0° (Epoch: 15 July)

Event Time Altitude Azimuth Distance (km) Brightness Sun altitude
Rises 20:58:37 0° 353° (N) 3,282 9.6 -10.9°
Reaches altitude 10° 21:01:01 10° 356° (N) 2,348 8.1 -10.9°
Maximum altitude 21:06:15 65° 79° (E) 859 4.3 -11.0°
Enters shadow 21:10:47 14° 160° (SSE) 2,074 5.6 -11.1°
